Time,TemperatureF,DewpointF,PressureIn,WindDirection,WindDirectionDegrees,WindSpeedMPH,WindSpeedGustMPH,Humidity,HourlyPrecipIn,Conditions,Clouds,dailyrainin,SolarRadiationWatts/m^2,SoftwareType,DateUTC
2013-03-21 00:22:00,60.0,60.0,-100.00,South,172,2.0,7.0,100,0.00,,,0.00,0.000000,,2013-03-21 10:22:00,
2013-03-21 00:33:00,60.0,60.0,-100.00,South,172,2.0,7.0,100,0.00,,,0.00,0.000000,,2013-03-21 10:33:00,
2013-03-21 00:42:00,60.0,60.0,-100.00,South,172,2.0,7.0,100,0.00,,,0.00,0.000000,,2013-03-21 10:42:00,
2013-03-21 00:52:00,60.0,60.0,-100.00,South,172,2.0,7.0,100,0.00,,,0.00,0.000000,,2013-03-21 10:52:00,
2013-03-21 01:22:00,59.0,59.0,-100.00,SSW,208,3.0,5.0,100,0.00,,,0.00,0.000000,,2013-03-21 11:22:00,
2013-03-21 01:33:00,59.0,59.0,-100.00,SSW,208,3.0,5.0,100,0.00,,,0.00,0.000000,,2013-03-21 11:33:00,
2013-03-21 01:42:00,59.0,59.0,-100.00,SSW,208,3.0,5.0,100,0.00,,,0.00,0.000000,,2013-03-21 11:42:00,
2013-03-21 01:52:00,59.0,59.0,-100.00,SSW,208,3.0,5.0,100,0.00,,,0.00,0.000000,,2013-03-21 11:52:00,
2013-03-21 02:22:00,57.0,57.0,-100.00,SSW,209,2.0,3.0,100,0.00,,,-99.99,0.000000,,2013-03-21 12:22:00,
2013-03-21 02:32:00,57.0,57.0,-100.00,SSW,209,2.0,3.0,100,0.00,,,-99.99,0.000000,,2013-03-21 12:32:00,
2013-03-21 02:42:00,57.0,57.0,-100.00,SSW,209,2.0,3.0,100,0.00,,,-99.99,0.000000,,2013-03-21 12:42:00,
2013-03-21 02:52:00,57.0,57.0,-100.00,SSW,209,2.0,3.0,100,0.00,,,-99.99,0.000000,,2013-03-21 12:52:00,
2013-03-21 03:22:00,57.0,57.0,-100.00,WSW,240,2.0,5.0,100,0.00,,,0.00,0.000000,,2013-03-21 13:22:00,
2013-03-21 03:32:00,57.0,57.0,-100.00,WSW,240,2.0,5.0,100,0.00,,,0.00,0.000000,,2013-03-21 13:32:00,
2013-03-21 03:42:00,57.0,57.0,-100.00,WSW,240,2.0,5.0,100,0.00,,,0.00,0.000000,,2013-03-21 13:42:00,
2013-03-21 03:52:00,57.0,57.0,-100.00,WSW,240,2.0,5.0,100,0.00,,,0.00,0.000000,,2013-03-21 13:52:00,
2013-03-21 04:21:00,58.0,58.0,-100.00,SW,219,2.0,6.0,100,0.00,,,0.00,0.000000,,2013-03-21 14:21:00,
2013-03-21 04:32:00,58.0,58.0,-100.00,SW,219,2.0,6.0,100,0.00,,,0.00,0.000000,,2013-03-21 14:32:00,
2013-03-21 04:42:00,58.0,58.0,-100.00,SW,219,2.0,6.0,100,0.00,,,0.00,0.000000,,2013-03-21 14:42:00,
2013-03-21 04:51:00,58.0,58.0,-100.00,SW,219,2.0,6.0,100,0.00,,,0.00,0.000000,,2013-03-21 14:51:00,
2013-03-21 05:22:00,61.0,61.0,-100.00,SSE,158,3.0,5.0,100,0.00,,,0.00,0.000000,,2013-03-21 15:22:00,
2013-03-21 05:32:00,61.0,61.0,-100.00,SSE,158,3.0,5.0,100,0.00,,,0.00,0.000000,,2013-03-21 15:32:00,
2013-03-21 05:42:00,61.0,61.0,-100.00,SSE,158,3.0,5.0,100,0.00,,,0.00,0.000000,,2013-03-21 15:42:00,
2013-03-21 05:52:00,61.0,61.0,-100.00,SSE,158,3.0,5.0,100,0.00,,,0.00,0.000000,,2013-03-21 15:52:00,
2013-03-21 06:23:00,64.0,64.0,-100.00,South,182,4.0,5.0,100,0.00,,,0.00,0.000000,,2013-03-21 16:23:00,
2013-03-21 06:33:00,64.0,64.0,-100.00,South,182,4.0,5.0,100,0.00,,,0.00,0.000000,,2013-03-21 16:33:00,
2013-03-21 06:42:00,64.0,64.0,-100.00,South,182,4.0,5.0,100,0.00,,,0.00,0.000000,,2013-03-21 16:42:00,
2013-03-21 06:52:00,64.0,64.0,-100.00,South,182,4.0,5.0,100,0.00,,,0.00,0.000000,,2013-03-21 16:52:00,
2013-03-21 07:23:00,68.0,68.0,-100.00,SSE,163,4.0,7.0,100,0.00,,,0.00,5.000000,,2013-03-21 17:23:00,
2013-03-21 07:32:00,68.0,68.0,-100.00,SSE,163,4.0,7.0,100,0.00,,,0.00,5.000000,,2013-03-21 17:32:00,
2013-03-21 07:42:00,68.0,68.0,-100.00,SSE,163,4.0,7.0,100,0.00,,,0.00,5.000000,,2013-03-21 17:42:00,
2013-03-21 07:52:00,68.0,68.0,-100.00,SSE,163,4.0,7.0,100,0.00,,,0.00,5.000000,,2013-03-21 17:52:00,
2013-03-21 08:22:00,72.0,70.0,-100.00,SSE,149,8.0,14.0,93,0.00,,,0.00,83.000000,,2013-03-21 18:22:00,
2013-03-21 08:32:00,72.0,70.0,-100.00,SSE,149,8.0,14.0,93,0.00,,,0.00,83.000000,,2013-03-21 18:32:00,
2013-03-21 08:42:00,72.0,70.0,-100.00,SSE,149,8.0,14.0,93,0.00,,,0.00,83.000000,,2013-03-21 18:42:00,
2013-03-21 08:52:00,72.0,70.0,-100.00,SSE,149,8.0,14.0,93,0.00,,,0.00,83.000000,,2013-03-21 18:52:00,
2013-03-21 09:22:00,75.0,72.0,-100.00,SE,144,9.0,16.0,89,0.00,,,0.00,147.000000,,2013-03-21 19:22:00,
2013-03-21 09:32:00,75.0,72.0,-100.00,SE,144,9.0,16.0,89,0.00,,,0.00,147.000000,,2013-03-21 19:32:00,
2013-03-21 09:42:00,75.0,72.0,-100.00,SE,144,9.0,16.0,89,0.00,,,0.00,147.000000,,2013-03-21 19:42:00,
2013-03-21 09:52:00,75.0,72.0,-100.00,SE,144,9.0,16.0,89,0.00,,,0.00,147.000000,,2013-03-21 19:52:00,
2013-03-21 10:22:00,76.0,70.0,-100.00,SE,141,11.0,21.0,83,0.00,,,0.00,216.000000,,2013-03-21 20:22:00,
2013-03-21 10:33:00,76.0,70.0,-100.00,SE,141,11.0,21.0,83,0.00,,,0.00,216.000000,,2013-03-21 20:33:00,
2013-03-21 10:42:00,76.0,70.0,-100.00,SE,141,11.0,21.0,83,0.00,,,0.00,216.000000,,2013-03-21 20:42:00,
2013-03-21 10:52:00,76.0,70.0,-100.00,SE,141,11.0,21.0,83,0.00,,,0.00,216.000000,,2013-03-21 20:52:00,
2013-03-21 11:22:00,76.0,69.0,-100.00,SE,142,11.0,24.0,80,0.00,,,0.00,339.000000,,2013-03-21 21:22:00,
2013-03-21 11:32:00,76.0,69.0,-100.00,SE,142,11.0,24.0,80,0.00,,,0.00,339.000000,,2013-03-21 21:32:00,
2013-03-21 11:43:00,76.0,69.0,-100.00,SE,142,11.0,24.0,80,0.00,,,0.00,339.000000,,2013-03-21 21:43:00,
2013-03-21 11:52:00,76.0,69.0,-100.00,SE,142,11.0,24.0,80,0.00,,,0.00,339.000000,,2013-03-21 21:52:00,
2013-03-21 12:23:00,78.0,71.0,-100.00,SE,133,11.0,24.0,80,0.00,,,0.00,510.000000,,2013-03-21 22:23:00,
2013-03-21 12:33:00,78.0,71.0,-100.00,SE,133,11.0,24.0,80,0.00,,,0.00,510.000000,,2013-03-21 22:33:00,
2013-03-21 12:42:00,78.0,71.0,-100.00,SE,133,11.0,24.0,80,0.00,,,0.00,510.000000,,2013-03-21 22:42:00,
2013-03-21 12:52:00,78.0,71.0,-100.00,SE,133,11.0,24.0,80,0.00,,,0.00,510.000000,,2013-03-21 22:52:00,
2013-03-21 13:22:00,78.0,71.0,-100.00,ESE,117,10.0,22.0,78,0.00,,,0.00,633.000000,,2013-03-21 23:22:00,
2013-03-21 13:32:00,78.0,71.0,-100.00,ESE,117,10.0,22.0,78,0.00,,,0.00,633.000000,,2013-03-21 23:32:00,
2013-03-21 13:42:00,78.0,71.0,-100.00,ESE,117,10.0,22.0,78,0.00,,,0.00,633.000000,,2013-03-21 23:42:00,
2013-03-21 13:52:00,78.0,71.0,-100.00,ESE,117,10.0,22.0,78,0.00,,,0.00,633.000000,,2013-03-21 23:52:00,
2013-03-21 14:22:00,77.0,69.0,-100.00,SE,143,9.0,21.0,76,0.00,,,0.00,438.000000,,2013-03-22 00:22:00,
2013-03-21 14:31:00,77.0,69.0,-100.00,SE,143,9.0,21.0,76,0.00,,,0.00,438.000000,,2013-03-22 00:31:00,
2013-03-21 14:42:00,77.0,69.0,-100.00,SE,143,9.0,21.0,76,0.00,,,0.00,438.000000,,2013-03-22 00:42:00,
2013-03-21 14:52:00,77.0,69.0,-100.00,SE,143,9.0,21.0,76,0.00,,,0.00,438.000000,,2013-03-22 00:52:00,
2013-03-21 15:22:00,77.0,66.0,-100.00,SE,133,9.0,21.0,69,0.00,,,0.00,495.000000,,2013-03-22 01:22:00,
2013-03-21 15:32:00,77.0,66.0,-100.00,SE,133,9.0,21.0,69,0.00,,,0.00,495.000000,,2013-03-22 01:32:00,
2013-03-21 15:42:00,77.0,66.0,-100.00,SE,133,9.0,21.0,69,0.00,,,0.00,495.000000,,2013-03-22 01:42:00,
2013-03-21 15:52:00,77.0,66.0,-100.00,SE,133,9.0,21.0,69,0.00,,,0.00,495.000000,,2013-03-22 01:52:00,
2013-03-21 16:22:00,78.0,68.0,-100.00,SSE,168,10.0,21.0,71,0.00,,,0.00,305.000000,,2013-03-22 02:22:00,
2013-03-21 16:32:00,78.0,68.0,-100.00,SSE,168,10.0,21.0,71,0.00,,,0.00,305.000000,,2013-03-22 02:32:00,
2013-03-21 16:42:00,78.0,68.0,-100.00,SSE,168,10.0,21.0,71,0.00,,,0.00,305.000000,,2013-03-22 02:42:00,
2013-03-21 16:51:00,78.0,68.0,-100.00,SSE,168,10.0,21.0,71,0.00,,,0.00,305.000000,,2013-03-22 02:51:00,
2013-03-21 17:22:00,75.0,66.0,-100.00,SSE,156,8.0,18.0,74,0.00,,,0.00,207.000000,,2013-03-22 03:22:00,
2013-03-21 17:33:00,75.0,66.0,-100.00,SSE,156,8.0,18.0,74,0.00,,,0.00,207.000000,,2013-03-22 03:33:00,
2013-03-21 17:42:00,75.0,66.0,-100.00,SSE,156,8.0,18.0,74,0.00,,,0.00,207.000000,,2013-03-22 03:42:00,
2013-03-21 17:52:00,75.0,66.0,-100.00,SSE,156,8.0,18.0,74,0.00,,,0.00,207.000000,,2013-03-22 03:52:00,
2013-03-21 18:23:00,74.0,68.0,-100.00,SSE,152,8.0,18.0,83,0.00,,,0.00,101.000000,,2013-03-22 04:23:00,
2013-03-21 18:32:00,74.0,68.0,-100.00,SSE,152,8.0,18.0,83,0.00,,,0.00,101.000000,,2013-03-22 04:32:00,
2013-03-21 18:42:00,74.0,68.0,-100.00,SSE,152,8.0,18.0,83,0.00,,,0.00,101.000000,,2013-03-22 04:42:00,
2013-03-21 18:52:00,74.0,68.0,-100.00,SSE,152,8.0,18.0,83,0.00,,,0.00,101.000000,,2013-03-22 04:52:00,
2013-03-21 19:22:00,71.0,67.0,-100.00,SSE,152,8.0,18.0,87,0.00,,,0.00,20.000000,,2013-03-22 05:22:00,
2013-03-21 19:32:00,71.0,67.0,-100.00,SSE,152,8.0,18.0,87,0.00,,,0.00,20.000000,,2013-03-22 05:32:00,
2013-03-21 19:42:00,71.0,67.0,-100.00,SSE,152,8.0,18.0,87,0.00,,,0.00,20.000000,,2013-03-22 05:42:00,
2013-03-21 19:52:00,71.0,67.0,-100.00,SSE,152,8.0,18.0,87,0.00,,,0.00,20.000000,,2013-03-22 05:52:00,
2013-03-21 20:22:00,71.0,66.0,-100.00,SSE,160,6.0,17.0,83,0.00,,,0.00,0.000000,,2013-03-22 06:22:00,
2013-03-21 20:32:00,71.0,66.0,-100.00,SSE,160,6.0,17.0,83,0.00,,,0.00,0.000000,,2013-03-22 06:32:00,
2013-03-21 20:42:00,71.0,66.0,-100.00,SSE,160,6.0,17.0,83,0.00,,,0.00,0.000000,,2013-03-22 06:42:00,
2013-03-21 20:52:00,71.0,66.0,-100.00,SSE,160,6.0,17.0,83,0.00,,,0.00,0.000000,,2013-03-22 06:52:00,
2013-03-21 21:22:00,72.0,70.0,-100.00,SE,135,8.0,16.0,92,0.00,,,0.00,0.000000,,2013-03-22 07:22:00,
2013-03-21 21:32:00,72.0,70.0,-100.00,SE,135,8.0,16.0,92,0.00,,,0.00,0.000000,,2013-03-22 07:32:00,
2013-03-21 21:42:00,72.0,70.0,-100.00,SE,135,8.0,16.0,92,0.00,,,0.00,0.000000,,2013-03-22 07:42:00,
2013-03-21 21:52:00,72.0,70.0,-100.00,SE,135,8.0,16.0,92,0.00,,,0.00,0.000000,,2013-03-22 07:52:00,
2013-03-21 22:22:00,70.0,70.0,-100.00,SE,136,9.0,17.0,99,0.00,,,-99.99,0.000000,,2013-03-22 08:22:00,
2013-03-21 22:32:00,70.0,70.0,-100.00,SE,136,9.0,17.0,99,0.00,,,-99.99,0.000000,,2013-03-22 08:32:00,
2013-03-21 22:42:00,70.0,70.0,-100.00,SE,136,9.0,17.0,99,0.00,,,-99.99,0.000000,,2013-03-22 08:42:00,
2013-03-21 22:52:00,70.0,70.0,-100.00,SE,136,9.0,17.0,99,0.00,,,-99.99,0.000000,,2013-03-22 08:52:00,
2013-03-21 23:22:00,71.0,71.0,-100.00,SE,141,10.0,19.0,100,0.00,,,0.00,0.000000,,2013-03-22 09:22:00,
2013-03-21 23:32:00,71.0,71.0,-100.00,SE,141,10.0,19.0,100,0.00,,,0.00,0.000000,,2013-03-22 09:32:00,
2013-03-21 23:42:00,71.0,71.0,-100.00,SE,141,10.0,19.0,100,0.00,,,0.00,0.000000,,2013-03-22 09:42:00,
2013-03-21 23:53:00,71.0,71.0,-100.00,SE,141,10.0,19.0,100,0.00,,,0.00,0.000000,,2013-03-22 09:53:00,